Regional Weather Roundup
Issued by NWS

Home | Current Version | Previous Version | Text Only | Print | Product List | Glossary On
Versions: 1 2 3 4 5 6 7 8 9 10 11 12 13 14 15 16 17 18 19 20 21 22 23 24 25 26 27 28 29 30 31 32 33 34 35 36 37 38 39 40 41 42 43 44 45 46 47 48 49 50
000
ASUS43 KMKX 290700
RWRWI

WISCONSIN REGIONAL WEATHER ROUNDUP
NATIONAL WEATHER SERVICE MILWAUKEE/SULLIVAN WI
200 AM CDT FRI JUL 29 2016

NOTE: "FAIR" INDICATES FEW OR NO CLOUDS BELOW 12,000 FEET WITH NO
SIGNIFICANT WEATHER AND/OR OBSTRUCTIONS TO VISIBILITY.

WIZ001-002-006>008-014>016-023>028-290800-
NORTHWEST WISCONSIN

CITY           SKY/WX    TMP DP  RH WIND       PRES   REMARKS
SUPERIOR ARPT  CLEAR     49  49 100 CALM      30.10R
ASHLAND        CLEAR     48  48 100 CALM      30.10S FOG
HAYWARD        CLEAR     50  48  93 NE3       30.09F
SIREN          NOT AVBL
CUMBERLAND     CLEAR     57  52  82 NE3       30.08S
RICE LAKE      CLEAR     57  54  88 CALM      30.09S
CHETEK         CLEAR     61  56  81 N6        30.07S
LADYSMITH      CLEAR     58  55  89 CALM      30.08F
EAU CLAIRE     NOT AVBL
MENOMONIE      CLOUDY    65  61  89 CALM      30.05S
NEW RICHMOND   CLOUDY    61  55  78 E3        30.07S
OSCEOLA        PTCLDY    60  56  88 CALM      30.10R
$$

WIZ003>005-009-010-017-018-290800-
NORTH CENTRAL WISCONSIN

CITY           SKY/WX    TMP DP  RH WIND       PRES   REMARKS
MANITOWISH WTR CLEAR     48  48 100 CALM      30.10R
ARBOR VITAE    CLEAR     50  49  93 CALM      30.10R
WOODRUFF       CLEAR     50  49  93 CALM      30.10R
RHINELANDER    CLEAR     54  51  90 N3        30.10R
EAGLE RIVER    CLEAR     47  47 100 CALM      30.10R
LAND O LAKES   CLEAR     46  46  97 CALM      30.11R FOG
PHILLIPS       CLEAR     52  52 100 CALM      30.08S
TOMAHAWK       CLEAR     50  48  93 CALM      30.09R
MEDFORD        CLOUDY    59  55  87 NE5       30.06R
MERRILL        CLOUDY    59  55  88 N5        30.07S
$$

WIZ029-030-035-036-043>047-290800-
CENTRAL WISCONSIN

CITY           SKY/WX    TMP DP  RH WIND       PRES   REMARKS
WAUSAU         CLOUDY    62  53  72 CALM      30.04S
MOSINEE        CLOUDY    61  55  82 NE5       30.05S
MARSHFIELD     CLOUDY    63  59  87 E3        30.05R
STEVENS POINT  LGT RAIN  59  58  95 NE7       30.03F
WAUPACA        CLOUDY    65  54  65 NE5       30.03S
WAUTOMA        NOT AVBL
WISC RAPIDS    CLOUDY    64  55  72 NE9       30.05R
CAMP DOUGLAS   NOT AVBL
$$

WIZ011>013-019>022-031-037>040-048>050-290800-
NORTHEAST WISCONSIN

CITY           SKY/WX    TMP DP  RH WIND       PRES   REMARKS
ANTIGO         CLOUDY    58  54  84 CALM      30.07S
SHAWANO        CLOUDY    64  54  70 NE13      30.04F
OCONTO         CLOUDY    60  59  96 N7        30.03S
STURGEON BAY   CLOUDY    64  56  75 NE8       30.03S
GREEN BAY      CLOUDY    61  58  90 N8        30.03R
MANITOWOC      NOT AVBL
APPLETON       CLOUDY    63  52  67 NE8       30.01S THUNDER
CLINTONVILLE   CLOUDY    61  52  72 NE5       30.03S
OSHKOSH        CLOUDY    66  58  75 NE13      30.01S
$$

WIZ032>034-041-042-053>061-290800-
SOUTHWEST WISCONSIN

CITY           SKY/WX    TMP DP  RH WIND       PRES   REMARKS
LA CROSSE      CLOUDY    65  62  90 N8        30.00S
SPARTA         CLOUDY    64  61  91 NE3       30.02S
VIROQUA        CLOUDY    64  64 100 NE7       30.01R
BOSCOBEL       CLOUDY    70  64  81 VRB5      29.97S
PRAIRIE DU CHI CLOUDY    67  65  96 CALM      29.96S
PLATTEVILLE    PTCLDY    68  67  98 E8        29.97S
$$

WIZ056-057-062-063-064-067-068-290800-
SOUTH CENTRAL WISCONSIN

CITY           SKY/WX    TMP DP  RH WIND       PRES   REMARKS
REEDSBURG      CLOUDY    66  61  86 NE3       29.99S
BARABOO/DELLS  CLOUDY    64  60  84 NE9       30.00S
LONE ROCK      NOT AVBL
MINERAL POINT  CLOUDY    68  64  88 NE5       29.97S
MADISON        CLOUDY    66  61  84 NE12      29.98S
MIDDLETON      CLOUDY    67  61  83 NE8       29.99S
WATERTOWN      CLOUDY    64  64  97 NE7       29.98S
MONROE         CLOUDY    64  63  94 NE9       29.96F
JANESVILLE     CLOUDY    68  64  88 N7        29.95S
$$

WIZ051-052-058>065-066-070>072-290800-
SOUTHEAST WISCONSIN

CITY           SKY/WX    TMP DP  RH WIND       PRES   REMARKS
MILWAUKEE      CLOUDY    69  64  84 N16G25    29.96R
WAUKESHA       CLOUDY    64  61  88 NE7       29.99R
MILWAUKEE/TIMM CLOUDY    66  61  82 NE13G21   29.98R
RACINE         CLOUDY    68  64  87 N9        29.97S
BURLINGTON     CLOUDY    66  64  92 N5        29.96R
KENOSHA        CLOUDY    68  65  90 N7        29.95S
FOND DU LAC    LGT RAIN  64  61  90 NE13      30.00F
SHEBOYGAN      LGT RAIN  63  61  93 NE13      29.99S
WEST BEND      CLOUDY    63  61  94 NE7       29.99S
JUNEAU         CLOUDY    64  61  92 NE10      30.00S
$$

LSZ147-162-290800-
LAKE SUPERIOR

STATION/POSITION TIME  TEMP    WIND        PRES    WAVE
                       AIR SEA DIR/SP/G            HT/PER
                 (UTC) (F)     (DEG/KT/KT) (MB)    (FT/S)
W MID LAKE BUOY  0550   61 60   10/  6/  8 1018.5F   1
DEVILS ISLAND    0600   62      20/  8/  9 1019.0F
SAXON HARBOR     0640   53     200/  5/  7 1019.0R
$$

LMZ867-665-643>646-290800-
LAKE MICHIGAN

STATION/POSITION TIME  TEMP    WIND        PRES    WAVE
                       AIR SEA DIR/SP/G            HT/PER
                 (UTC) (F)     (DEG/KT/KT) (MB)    (FT/S)
CHAMBERS ISLAND  0600   66     360/ 15/ 16 1016.6F
N MID LAKE BUOY  0550   66 69   20/ 17/ 19 1015.6S   3/ 5
NORTHPORT PIER   0600   66      20/ 11/ 16 1016.6F
SISTER BAY       0621   66      20/  9/ 14   N/A
ALGOMA LAKESHORE 0613           40/  8/ 10   N/A
KEWAUNEE LAKESHO 0600   63      10/  5/  8 1015.8R
SHEBOYGAN LAKESH 0600   64      10/ 25/ 26 1015.4F
PORT WASHINGTON  0600   67      20/  9/ 15 1015.9
ATWATER BUOY     0600   63 62  360/ 12/ 16 1016.0S
MILWAUKEE LAKESH 0610   67      10/ 16/ 21   N/A
S MID LAKE BUOY  0550   74 75   70/ 10/ 12 1012.8F   3/ 6
KENOSHA   LAKESH 0600   68     350/ 10/ 12 1013.5S
$$

TC  - TEMPERATURE IN CELSIUS
VSB - VISIBILITY IN STATUTE MILES
WCI - WIND CHILL INDEX
HX  - HEAT INDEX





USA.gov is the U.S. government's official web portal to all federal, state and local government web resources and services.